Tracking 18647 objects as of 28-May-2017
HD Live streaming from Space Station
objects crossing your sky now

OPS 9343 (IDSCS 22)

Track OPS 9343 (IDSCS 22) now!
OPS 9343 (IDSCS 22) is classified as:


NORAD ID: 3286
Int'l Code: 1968-050C
Perigee: 33,745.3 km
Apogee: 33,889.8 km
Inclination: 1.3 °
Period: 1,336.3 minutes
Semi major axis: 40188 km
RCS: 0.2393 m2 (medium)
Launch date: June 13, 1968
Source: United States (US)
Launch site: AIR FORCE EASTERN TEST RANGE (AFETR)
Your satellite tracking list
Your tracking list is empty





NASA's NSSDC Master Catalog

Two Line Element Set (TLE):
1  3286U 68050C   17146.76472109 -.00000118 +00000-0 +00000-0 0  9994
2  3286 001.2812 031.7955 0017981 099.9567 077.4134 01.07758107011808
Source of the keplerian elements: AFSPC